Stations météo

réclame
Mon MeteoGroup
Genova/Sestri, Italie (16120): Température de l'air & dewpoint: 11.12.2017 20:00:00 - 17.12.2017 20:00:00 (CET)Genova/Sestri, Italie (16120): Vitesse du vent: 11.12.2017 20:00:00 - 17.12.2017 20:00:00 (CET)Genova/Sestri, Italie (16120): Direction du vent: 11.12.2017 20:00:00 - 17.12.2017 20:00:00 (CET)Genova/Sestri, Italie (16120): reduced air pressure: 11.12.2017 20:00:00 - 17.12.2017 20:00:00 (CET)Genova/Sestri, Italie (16120): visibility: 11.12.2017 20:00:00 - 17.12.2017 20:00:00 (CET)
Date & Time tt [°C] td [°C] ff [km/h] ff [knt] dd ppp [hPa] vv [km]
17.12.2017 20:00:00 10,0 -9,0 22 12 N - 10
17.12.2017 19:00:00 9,7 -9,4 5 3 W 1022,0 10
17.12.2017 18:00:00 10,0 -10,0 11 6 N - 10
17.12.2017 17:00:00 10,0 -11,0 13 7 NNW - 10
17.12.2017 16:00:00 11,0 -11,2 4 2 - 1020,0 10
17.12.2017 15:00:00 12,0 -10,0 11 6 NNE - 10
17.12.2017 14:00:00 11,0 -11,0 16 9 NNE - 10
17.12.2017 13:00:00 11,5 -9,9 11 6 NE 1019,4 10
17.12.2017 12:00:00 10,0 -8,0 9 5 E - 10
17.12.2017 11:00:00 8,0 -6,0 11 6 - - 10
17.12.2017 10:00:00 8,2 -6,5 15 8 E 1019,2 10
17.12.2017 09:00:00 8,0 -6,0 8 4 - - 10
17.12.2017 08:00:00 8,0 -7,0 16 9 ENE - 10
17.12.2017 07:00:00 9,0 -8,2 11 6 NNE 1016,4 10
17.12.2017 06:00:00 8,0 -6,0 15 8 NE - 10
17.12.2017 05:00:00 7,0 -5,0 15 8 ENE - 10
17.12.2017 04:00:00 8,4 -6,0 18 10 N 1015,6 10
17.12.2017 03:00:00 9,0 -6,0 21 11 N - 10
17.12.2017 02:00:00 6,0 -3,0 5 3 - - 10
17.12.2017 01:00:00 6,3 -1,9 9 5 E 1014,6 10
17.12.2017 00:00:00 7,0 -1,0 8 4 E - 10
16.12.2017 23:00:00 7,0 0,0 11 6 ENE - 10
16.12.2017 22:00:00 7,1 -0,1 16 9 ENE 1013,5 10
16.12.2017 21:00:00 5,0 1,0 15 8 ENE - 10
16.12.2017 20:00:00 5,0 1,0 15 8 NE - 10
16.12.2017 19:00:00 4,7 1,0 11 6 ENE 1012,0 10
16.12.2017 18:00:00 5,0 1,0 16 9 ENE - 10
16.12.2017 17:00:00 5,0 1,0 18 10 ENE - 10
16.12.2017 16:00:00 5,6 1,0 26 14 ENE 1009,4 10
16.12.2017 15:00:00 6,0 1,0 22 12 NE - 10
16.12.2017 14:00:00 7,0 0,0 21 11 NE - 10
16.12.2017 13:00:00 7,4 -0,5 9 5 SE 1007,2 10
16.12.2017 12:00:00 7,0 -3,0 18 10 NE - 10
16.12.2017 11:00:00 9,0 -4,0 13 7 NE - 10
16.12.2017 10:00:00 8,5 -5,1 11 6 N 1004,5 10
16.12.2017 09:00:00 9,0 -6,0 13 7 NE - 10
16.12.2017 08:00:00 9,0 -7,0 15 8 NE - 10
16.12.2017 07:00:00 9,3 -6,2 11 6 NE 1001,4 10
16.12.2017 06:00:00 10,0 -7,0 16 9 NE - 10
16.12.2017 05:00:00 9,0 -6,0 8 4 NE - 10
16.12.2017 04:00:00 9,1 -6,4 8 4 NNE 1000,1 10
16.12.2017 03:00:00 9,0 -6,0 8 4 ENE - 10
16.12.2017 02:00:00 9,0 -6,0 13 7 ENE - 10
16.12.2017 01:00:00 8,4 -4,7 16 9 ENE 999,5 10
16.12.2017 00:00:00 9,0 -3,0 9 5 N - 10
15.12.2017 23:00:00 9,0 -3,0 8 4 E - 10
15.12.2017 22:00:00 8,3 -1,8 5 3 NE 999,3 60
15.12.2017 21:00:00 8,0 0,0 4 2 - - 10
15.12.2017 20:00:00 9,0 1,0 9 5 NNE - 10
15.12.2017 19:00:00 9,3 0,2 13 7 NNE 997,9 25
15.12.2017 18:00:00 10,0 0,0 13 7 NE - 10
15.12.2017 17:00:00 11,0 2,0 8 4 NE - 10
15.12.2017 16:00:00 11,3 4,1 4 2 NE 997,0 25
15.12.2017 15:00:00 12,0 4,0 15 8 NE - 10
15.12.2017 14:00:00 12,0 4,0 18 10 ENE - 10
15.12.2017 13:00:00 13,3 6,5 15 8 ENE 997,7 10
15.12.2017 12:00:00 13,0 6,0 8 4 NNE - 10
15.12.2017 11:00:00 12,0 5,0 11 6 ENE - 10
15.12.2017 10:00:00 10,7 4,2 9 5 NE 1000,2 10
15.12.2017 09:00:00 9,0 3,0 13 7 NE - 10
15.12.2017 08:00:00 10,0 5,0 9 5 WNW - 10
15.12.2017 07:00:00 12,9 6,6 8 4 NW 998,3 10
15.12.2017 06:00:00 14,0 8,0 15 8 SW - 10
15.12.2017 05:00:00 - - - - - - -
15.12.2017 04:00:00 13,4 7,4 9 5 SW 999,6 -
15.12.2017 03:00:00 - - - - - - -
15.12.2017 02:00:00 - - - - - - -
15.12.2017 01:00:00 12,4 7,9 8 4 SSW 1001,9 -
15.12.2017 00:00:00 - - - - - - -
14.12.2017 23:00:00 12,0 8,0 8 4 NNE - 10
14.12.2017 22:00:00 12,2 7,6 16 9 E 1003,2 10
14.12.2017 21:00:00 13,0 8,0 8 4 S - 10
14.12.2017 20:00:00 13,0 9,0 21 11 SE - 10
14.12.2017 19:00:00 13,4 9,6 11 6 SE 1004,7 10
14.12.2017 18:00:00 13,0 9,0 22 12 E - 10
14.12.2017 17:00:00 13,0 8,0 21 11 SE - 10
14.12.2017 16:00:00 13,0 7,6 13 7 SSE 1007,0 10
14.12.2017 15:00:00 13,0 8,0 9 5 SE - 10
14.12.2017 14:00:00 14,0 8,0 8 4 ESE - 10
14.12.2017 13:00:00 14,3 8,6 5 3 - 1007,5 10
14.12.2017 12:00:00 13,0 9,0 8 4 SSE - 10
14.12.2017 11:00:00 12,0 8,0 5 3 NE - 10
14.12.2017 10:00:00 12,1 7,7 5 3 NNE 1008,9 10
14.12.2017 09:00:00 12,0 7,0 4 2 - - 10
14.12.2017 08:00:00 12,0 7,0 9 5 E - 10
14.12.2017 07:00:00 11,5 6,7 9 5 ESE 1008,5 10
14.12.2017 06:00:00 10,0 6,0 9 5 NE - 10
14.12.2017 05:00:00 11,0 6,0 13 7 SE - 10
14.12.2017 04:00:00 11,0 4,4 9 5 SSE 1010,3 -
14.12.2017 03:00:00 - - - - - - -
14.12.2017 02:00:00 - - - - - - -
14.12.2017 01:00:00 11,5 4,9 16 9 S 1011,6 -
14.12.2017 00:00:00 12,0 7,0 28 15 SSE - 10
13.12.2017 23:00:00 12,0 5,0 16 9 S - 10
13.12.2017 22:00:00 11,7 5,1 21 11 SSE 1013,6 10
13.12.2017 21:00:00 12,0 4,0 26 14 SE - 10
13.12.2017 20:00:00 12,0 6,0 15 8 SSE - 10
13.12.2017 19:00:00 12,0 4,4 13 7 S 1015,4 10
13.12.2017 18:00:00 12,0 6,0 13 7 SSW - 10
13.12.2017 17:00:00 12,0 6,0 8 4 S - 10
13.12.2017 16:00:00 12,2 5,8 5 3 S 1015,8 10
13.12.2017 15:00:00 13,0 6,0 9 5 SSE - 10
13.12.2017 14:00:00 14,0 5,0 9 5 E - 10
13.12.2017 13:00:00 13,2 4,8 9 5 E 1016,5 30
13.12.2017 12:00:00 13,0 4,0 9 5 NE - 10
13.12.2017 11:00:00 12,0 4,0 13 7 ENE - 10
13.12.2017 10:00:00 10,1 3,7 15 8 NE 1017,2 10
13.12.2017 09:00:00 8,0 3,0 18 10 NE - 10
13.12.2017 08:00:00 8,0 4,0 13 7 NNE - 10
13.12.2017 07:00:00 8,1 4,0 13 7 NNE 1016,4 10
13.12.2017 06:00:00 8,0 4,0 16 9 N - 10
13.12.2017 05:00:00 9,0 5,0 11 6 N - 10
13.12.2017 04:00:00 10,0 6,0 13 7 NNE - 10
13.12.2017 03:00:00 10,0 6,0 11 6 NE - 10
13.12.2017 02:00:00 10,0 6,0 11 6 NE - 10
13.12.2017 01:00:00 - - - - - - -
13.12.2017 00:00:00 11,0 8,0 11 6 NNE - 10
12.12.2017 23:00:00 12,0 8,0 9 5 SSE - 10
12.12.2017 22:00:00 12,2 8,2 8 4 E 1013,8 10
12.12.2017 21:00:00 13,0 8,0 16 9 SSW - 10
12.12.2017 20:00:00 13,0 7,0 11 6 S - 10
12.12.2017 19:00:00 13,3 7,1 11 6 S 1012,3 10
12.12.2017 18:00:00 13,0 7,0 8 4 SE - 10
12.12.2017 17:00:00 13,0 8,0 15 8 S - 10
12.12.2017 16:00:00 13,5 8,3 22 12 S 1010,8 10
12.12.2017 15:00:00 13,0 8,0 15 8 SE - 10
12.12.2017 14:00:00 13,0 8,0 18 10 SE - 10
12.12.2017 13:00:00 13,1 8,4 11 6 SSE 1010,2 10
12.12.2017 12:00:00 13,0 8,0 11 6 S - 10
12.12.2017 11:00:00 13,0 8,0 16 9 S - 10
12.12.2017 10:00:00 13,2 9,1 15 8 S 1009,3 10
12.12.2017 09:00:00 13,0 9,0 16 9 SSW - 10
12.12.2017 08:00:00 13,0 8,0 22 12 SSW - 10
12.12.2017 07:00:00 13,1 8,5 15 8 SSW 1006,0 10
12.12.2017 06:00:00 13,0 8,0 21 11 S - 8
12.12.2017 05:00:00 13,0 9,0 16 9 SE - 8
12.12.2017 04:00:00 12,9 9,2 9 5 W 1002,8 5
12.12.2017 03:00:00 14,0 10,0 31 17 SW - 5
12.12.2017 02:00:00 14,0 10,0 29 16 SW - 5
12.12.2017 01:00:00 14,1 10,1 41 22 SW 999,6 5
12.12.2017 00:00:00 15,0 13,0 41 22 SSW - 5
11.12.2017 23:00:00 15,0 13,0 42 23 S - 5
11.12.2017 22:00:00 14,7 13,5 46 25 SSW 994,9 5
11.12.2017 21:00:00 15,0 14,0 41 22 S - 2,5
11.12.2017 20:00:00 15,0 14,0 41 22 S - 3,0

tt = Température de l'air
td = dewpoint
ff = Vitesse du vent
dd = Direction du vent
ppp = reduced air pressure
vv = visibility

stations d'obs. à proximité